Wind_Speed
47 50 53 55 58 65 70 73 73 74 74 70 66 61 58 53 49 50 55 63 70 70 62 52 45 42 41 39 36 33 32 33 39 47 45 39 37 38 40 41 39 37 39 38
50 53 56 58 65 71 74 76 72 70 65 61 56 55 50 46 48 52 60 67 69 62 48 38 33 30 29 30 30 26 25 27 30 35 39 37 37 39 43 42 37 37 38 38
55 57 61 67 71 74 77 71 64 63 59 56 53 46 43 44 48 54 61 65 62 50 35 27 23 21 22 26 28 25 19 21 26 29 33 35 38 39 37 35 34 35 35 34
59 63 68 71 75 77 75 64 58 55 52 51 46 40 40 43 47 52 58 58 52 41 28 21 16 16 20 24 25 22 16 14 18 20 22 24 26 27 28 30 31 32 32 32
64 68 72 76 77 74 71 60 53 51 48 45 38 34 35 39 44 48 53 51 45 36 25 17 14 16 19 21 22 19 15 12 12 14 15 17 20 22 25 28 31 32 31 30
69 73 76 77 74 69 65 53 51 46 44 42 35 31 32 37 40 43 46 44 38 31 23 18 16 17 18 19 19 18 15 15 15 17 18 21 22 23 25 29 31 32 31 30
72 76 77 73 68 62 55 53 46 42 42 41 36 33 33 36 39 40 40 39 34 29 23 19 18 18 18 18 19 19 18 18 20 22 23 25 26 27 28 30 31 31 31 31
75 76 71 68 59 54 49 45 43 43 42 38 34 32 33 36 37 37 36 35 32 28 24 22 21 21 21 21 21 21 22 22 23 25 27 28 29 30 31 31 32 33 33 32
74 70 66 57 51 48 45 43 42 41 38 35 32 31 33 35 36 36 35 33 32 29 26 25 24 24 24 24 25 25 26 27 28 28 28 30 31 32 33 33 34 35 36 37
68 64 57 50 47 43 41 41 39 38 35 33 31 31 33 33 34 35 35 34 33 31 29 28 26 26 26 27 28 29 30 32 33 35 36 37 37 38 38 38 38 39 41 42
62 57 50 45 44 42 39 38 37 35 34 32 32 32 33 33 34 35 37 37 37 36 34 32 31 30 29 29 29 30 32 33 34 36 39 40 42 43 43 44 44 45 46 48
56 51 46 43 41 40 38 37 36 34 33 32 32 33 34 34 35 36 38 39 39 39 38 37 35 34 33 33 33 33 33 33 34 35 38 40 43 45 47 48 49 51 52 53
49 44 42 39 39 39 38 36 35 34 34 34 34 34 34 34 35 37 40 42 42 41 40 38 36 35 34 34 34 35 35 36 37 38 39 41 43 46 48 50 52 54 55 56
44 41 38 37 39 38 36 35 35 35 34 34 35 35 34 35 37 40 43 43 43 41 40 39 37 36 35 34 34 34 34 35 37 38 40 42 44 46 48 50 52 54 55 56
41 40 39 39 40 37 34 34 35 35 35 35 35 35 36 37 40 42 44 44 43 41 39 38 37 36 36 36 35 36 36 37 38 40 41 43 45 46 48 50 52 55 57 58
39 39 39 39 37 33 32 34 35 35 34 34 35 36 38 40 43 44 45 44 42 40 38 38 38 38 38 39 40 41 42 43 44 46 47 49 50 52 54 56 57 59 61 63
38 39 39 38 35 32 32 33 35 34 34 35 36 38 41 43 45 45 45 44 42 40 39 40 41 43 44 46 48 49 51 53 54 55 57 58 59 60 62 63 65 66 67 69
38 39 39 37 35 32 32 33 35 35 36 37 39 41 43 45 45 45 45 44 44 43 44 45 48 51 54 56 58 60 61 63 64 65 66 67 67 69 70 71 72 73 74 75
37 38 38 36 34 31 31 33 35 36 38 40 42 43 44 45 45 45 45 46 47 49 51 54 57 60 62 64 66 66 67 67 67 67 67 67 68 69 69 70 71 72 73 73
37 37 36 35 32 31 31 33 36 38 40 42 44 45 45 46 47 47 48 49 52 56 59 62 64 65 66 65 64 63 61 59 58 57 56 55 54 54 54 55 55 56 57 58
36 35 34 32 30 29 31 34 37 39 42 44 46 46 47 47 48 49 52 55 59 63 65 65 64 61 58 55 51 48 46 44 42 40 39 37 36 36 35 35 36 36 37 37
33 31 30 29 28 30 33 36 38 41 44 46 46 47 47 48 51 54 58 61 62 62 59 55 51 46 43 41 39 38 37 35 34 32 31 29 29 28 28 28 29 28 28 28
27 26 25 26 28 31 34 37 40 43 45 45 46 47 48 50 54 58 60 59 54 48 43 40 38 38 38 38 37 37 36 35 34 34 33 33 33 33 32 32 32 31 29 27
22 21 23 26 29 32 36 39 42 44 44 44 45 47 50 54 57 57 52 44 37 36 37 39 40 41 41 41 40 40 39 38 38 37 37 38 39 39 39 39 38 37 35 32
20 22 24 28 31 35 38 41 41 41 42 43 45 48 52 54 50 41 33 33 36 40 42 43 44 44 45 45 45 45 44 44 43 42 42 42 42 43 42 42 41 40 39 36
22 25 28 31 34 36 38 39 39 39 41 43 47 50 51 43 31 29 33 37 39 41 42 43 44 45 47 47 48 48 48 48 47 47 46 46 45 45 44 43 42 40 39 36
25 28 30 33 34 36 36 36 37 39 42 45 48 46 35 25 28 32 35 36 38 39 41 43 45 47 48 50 51 52 52 52 51 51 50 49 48 46 45 43 41 38 36 33
Wind_Direction
317 317 317 317 316 314 313 313 313 313 313 314 316 315 315 314 314 315 317 316 315 314 309 301 294 287 282 281 285 286 279 263 249 246 246 246 248 255 260 266 272 272 269 267
317 316 315 316 313 314 315 316 317 315 315 316 316 314 314 316 317 320 320 320 321 319 312 302 296 289 282 282 283 291 277 260 248 244 245 248 253 258 262 265 264 262 262 265
316 316 316 315 316 317 317 319 318 316 317 316 316 316 318 320 322 324 326 327 329 328 320 307 298 288 283 284 286 295 279 254 243 241 243 248 252 256 257 256 256 257 261 262
317 317 317 318 316 317 318 320 317 315 314 315 316 318 322 324 327 329 330 333 336 337 332 318 305 292 288 291 293 300 287 250 235 233 238 245 248 249 250 249 250 254 257 256
317 318 317 315 317 319 318 322 318 315 314 313 313 317 324 328 330 331 334 338 341 342 340 333 319 306 301 300 299 302 289 260 234 224 227 238 245 248 249 248 249 253 255 253
318 318 317 318 319 319 319 322 319 315 315 315 315 317 326 331 330 331 336 340 344 346 345 339 329 318 314 308 303 300 286 265 245 234 234 241 248 253 254 252 252 254 255 255
318 318 317 320 320 320 322 324 322 317 316 315 316 319 325 329 329 330 336 341 343 343 341 336 328 321 319 312 304 297 286 267 254 248 249 253 257 259 260 259 257 256 257 259
319 319 321 322 320 323 324 323 320 318 315 313 314 317 321 325 328 330 334 339 341 337 332 325 319 315 313 309 303 297 288 275 263 258 256 257 259 261 264 264 262 261 262 264
320 320 321 322 322 325 324 322 320 317 315 313 315 318 322 325 327 330 331 334 335 333 327 319 313 309 306 304 299 294 287 279 271 265 260 259 261 263 266 268 267 267 268 270
320 321 322 323 324 325 323 321 321 320 319 318 319 320 322 324 325 327 329 329 329 327 323 319 312 306 302 299 296 293 288 282 276 271 268 267 267 268 269 269 269 270 271 272
320 321 322 325 325 328 327 325 326 326 324 323 322 322 323 323 324 325 326 326 324 322 318 314 309 305 301 298 297 295 291 287 282 277 272 270 270 270 270 270 269 270 270 270
322 323 325 329 330 331 329 329 330 329 327 326 325 325 325 326 327 327 327 326 323 320 318 313 309 304 300 297 295 293 291 288 285 281 276 273 271 271 270 270 269 269 268 269
322 323 327 330 332 331 329 330 330 329 328 327 326 326 327 329 329 329 328 326 324 321 318 317 314 310 306 301 298 295 291 288 285 282 279 277 275 274 273 271 270 269 269 269
322 324 328 328 330 329 328 330 331 330 328 326 326 327 328 328 327 326 326 326 324 321 318 316 315 314 311 308 305 302 299 295 291 287 283 280 278 276 274 273 272 271 270 270
321 323 327 328 328 328 328 330 331 329 327 326 326 327 327 326 325 325 325 324 322 320 318 317 316 315 313 311 308 305 302 299 295 292 288 285 282 280 278 276 275 274 273 272
320 323 327 328 328 326 327 330 331 329 327 325 325 325 325 325 325 324 323 323 322 321 320 318 317 315 313 311 308 305 302 299 296 293 290 287 285 282 280 278 277 275 274 274
320 325 326 327 326 323 324 329 331 330 328 326 325 325 325 325 324 324 324 325 324 322 320 318 316 314 313 311 308 305 303 300 297 294 291 289 286 284 282 280 278 277 276 275
320 324 325 325 324 321 323 328 330 330 328 327 326 326 325 326 326 325 325 325 323 322 320 319 317 315 313 310 308 305 302 299 297 294 292 290 288 286 284 282 281 280 279 278
319 321 323 324 323 322 324 326 328 328 328 327 327 326 326 326 326 325 325 324 323 321 320 319 317 314 312 309 307 305 303 301 299 297 295 293 291 289 288 286 285 283 282 281
317 319 321 322 322 322 323 324 326 327 327 326 326 326 326 326 326 326 326 325 324 322 320 319 317 315 314 312 311 310 308 307 306 304 302 301 299 297 295 292 290 288 287 285
315 317 319 321 321 321 323 324 326 326 325 325 326 326 326 326 326 327 327 326 325 323 322 321 321 321 321 321 322 323 323 323 322 321 320 318 317 315 314 311 309 306 303 300
312 314 316 318 319 321 323 325 325 325 325 326 327 328 328 329 329 329 329 328 328 328 328 330 333 336 340 344 346 347 348 347 347 347 347 348 348 348 346 343 338 333 326 320
316 316 316 318 320 323 324 325 325 325 326 328 330 331 331 332 332 331 332 333 336 340 347 355 2 6 9 10 10 10 10 9 9 9 9 10 10 8 6 3 359 354 346 338
329 324 322 322 323 324 324 325 325 327 330 332 333 334 334 334 334 336 340 349 1 15 24 29 30 29 27 26 24 22 21 20 19 18 18 17 15 14 11 9 6 3 358 353
336 331 327 325 324 324 325 326 329 331 333 335 336 336 336 338 342 353 12 31 42 44 44 41 39 36 34 32 30 27 25 23 21 19 17 15 12 9 6 3 0 359 357 355
332 328 327 326 326 327 329 331 334 335 337 338 338 339 341 350 11 40 53 54 52 48 44 42 39 38 36 35 33 31 28 25 22 19 16 12 8 4 360 355 352 350 349 349
329 328 329 329 330 332 335 337 338 340 341 341 341 344 358 33 60 63 59 54 50 47 45 43 42 41 40 38 37 35 33 31 28 25 21 16 10 4 358 352 347 343 342 343
Height
5721 5714 5706 5699 5691 5679 5666 5652 5641 5630 5617 5604 5594 5583 5573 5564 5556 5549 5540 5529 5516 5501 5488 5480 5476 5473 5471 5470 5468 5465 5462 5460 5463 5469 5477 5483 5488 5491 5494 5495 5496 5497 5497 5496
5712 5704 5697 5690 5679 5666 5652 5635 5622 5610 5602 5593 5584 5572 5563 5555 5546 5537 5527 5514 5498 5482 5470 5465 5462 5461 5461 5460 5459 5457 5454 5453 5455 5460 5466 5472 5476 5480 5483 5484 5485 5486 5486 5486
5702 5693 5684 5675 5663 5652 5639 5622 5607 5596 5588 5579 5573 5564 5554 5546 5537 5527 5515 5500 5484 5469 5459 5456 5455 5454 5454 5454 5452 5450 5448 5447 5449 5453 5458 5463 5467 5470 5472 5473 5475 5476 5476 5475
5691 5682 5671 5659 5646 5638 5627 5613 5597 5586 5577 5568 5561 5554 5547 5537 5528 5518 5506 5492 5477 5465 5456 5453 5451 5450 5450 5449 5448 5446 5444 5443 5444 5447 5450 5454 5458 5460 5462 5464 5466 5466 5466 5466
5677 5667 5657 5645 5632 5620 5611 5604 5589 5578 5568 5560 5554 5548 5541 5532 5522 5511 5500 5487 5475 5464 5457 5452 5450 5449 5447 5446 5445 5443 5442 5441 5441 5442 5445 5448 5451 5452 5454 5455 5456 5456 5457 5458
5663 5651 5640 5630 5617 5603 5594 5590 5577 5566 5557 5549 5544 5539 5534 5526 5517 5508 5498 5486 5475 5465 5458 5453 5450 5448 5446 5445 5443 5441 5440 5439 5439 5440 5441 5443 5444 5445 5446 5446 5447 5447 5448 5448
5650 5635 5624 5614 5600 5589 5583 5575 5566 5557 5549 5541 5536 5531 5526 5519 5512 5503 5494 5484 5474 5466 5460 5455 5451 5448 5445 5442 5441 5439 5438 5437 5436 5436 5437 5437 5438 5438 5438 5438 5438 5438 5439 5439
5638 5624 5614 5599 5587 5579 5572 5563 5554 5547 5541 5534 5530 5524 5519 5513 5506 5498 5490 5482 5473 5466 5460 5455 5450 5446 5443 5440 5438 5436 5434 5433 5432 5431 5431 5430 5430 5430 5430 5429 5429 5429 5429 5429
5627 5616 5601 5588 5577 5569 5561 5554 5547 5540 5534 5528 5522 5517 5512 5506 5499 5492 5485 5478 5471 5465 5459 5453 5448 5444 5440 5436 5433 5431 5429 5428 5426 5425 5424 5423 5422 5421 5420 5419 5419 5419 5419 5418
5614 5604 5593 5582 5572 5564 5556 5548 5541 5533 5526 5521 5516 5511 5506 5500 5493 5487 5480 5474 5467 5462 5456 5450 5445 5440 5435 5431 5427 5424 5422 5419 5418 5416 5415 5414 5412 5411 5409 5408 5407 5407 5406 5405
5603 5594 5586 5576 5566 5558 5550 5542 5535 5528 5521 5516 5511 5506 5500 5494 5488 5481 5475 5468 5462 5456 5450 5444 5439 5434 5429 5425 5420 5416 5413 5410 5407 5405 5403 5402 5400 5399 5397 5395 5394 5393 5392 5391
5593 5582 5575 5567 5558 5551 5544 5536 5529 5523 5517 5511 5506 5500 5494 5487 5481 5475 5468 5462 5455 5448 5442 5436 5431 5425 5421 5416 5412 5408 5403 5400 5396 5393 5391 5389 5386 5385 5382 5380 5379 5377 5375 5374
5583 5575 5567 5558 5551 5544 5538 5531 5524 5518 5512 5506 5501 5494 5488 5481 5475 5469 5462 5455 5447 5440 5433 5427 5421 5416 5411 5406 5402 5397 5393 5389 5385 5382 5378 5375 5372 5369 5367 5364 5362 5360 5358 5356
5573 5567 5561 5553 5546 5539 5533 5526 5519 5513 5507 5501 5495 5489 5482 5476 5470 5463 5455 5447 5439 5432 5425 5419 5413 5407 5401 5396 5391 5387 5382 5378 5373 5369 5365 5361 5357 5354 5350 5347 5344 5341 5339 5336
5566 5560 5553 5546 5540 5533 5527 5521 5515 5508 5502 5496 5490 5483 5477 5471 5464 5456 5448 5440 5432 5424 5417 5411 5404 5398 5392 5386 5381 5376 5371 5366 5360 5355 5351 5346 5342 5337 5333 5329 5325 5321 5317 5314
5560 5553 5547 5540 5534 5528 5523 5517 5510 5504 5498 5492 5485 5479 5472 5465 5457 5449 5441 5433 5424 5417 5409 5402 5395 5389 5383 5377 5370 5364 5358 5352 5346 5340 5335 5329 5324 5319 5314 5309 5304 5300 5296 5292
5554 5548 5541 5535 5529 5523 5518 5512 5506 5500 5493 5487 5480 5473 5466 5458 5450 5442 5433 5424 5416 5409 5402 5394 5386 5379 5372 5365 5358 5350 5343 5335 5328 5321 5314 5308 5302 5296 5290 5285 5280 5275 5270 5266
5547 5541 5535 5530 5524 5518 5513 5507 5501 5495 5488 5482 5474 5467 5459 5451 5442 5434 5425 5416 5408 5400 5392 5385 5376 5366 5358 5349 5341 5332 5323 5314 5306 5298 5290 5282 5276 5269 5263 5257 5252 5247 5242 5237
5541 5535 5529 5524 5518 5513 5508 5502 5496 5489 5483 5476 5468 5461 5452 5444 5435 5426 5417 5408 5399 5390 5381 5372 5362 5352 5341 5330 5320 5309 5299 5289 5280 5271 5263 5255 5247 5240 5234 5228 5223 5217 5212 5208
5534 5528 5523 5518 5513 5508 5503 5497 5491 5484 5477 5470 5462 5454 5445 5436 5427 5417 5408 5399 5389 5379 5368 5357 5345 5333 5321 5309 5297 5286 5276 5266 5256 5247 5238 5230 5222 5215 5209 5202 5196 5190 5185 5180
5526 5522 5517 5513 5508 5503 5498 5492 5486 5479 5472 5464 5456 5446 5437 5428 5419 5410 5399 5388 5377 5365 5352 5339 5327 5314 5302 5290 5279 5269 5259 5249 5240 5231 5223 5215 5207 5200 5193 5186 5180 5174 5168 5163
5519 5515 5511 5507 5503 5498 5493 5487 5480 5473 5466 5457 5448 5439 5430 5420 5410 5399 5388 5377 5364 5351 5338 5325 5313 5301 5290 5280 5270 5261 5252 5243 5234 5225 5217 5209 5201 5193 5186 5179 5172 5166 5160 5154
5512 5509 5506 5502 5498 5494 5488 5482 5475 5467 5459 5450 5441 5432 5423 5413 5402 5391 5379 5366 5353 5341 5329 5318 5308 5298 5289 5280 5270 5261 5252 5243 5234 5226 5217 5209 5201 5193 5185 5177 5170 5163 5156 5149
5508 5505 5502 5499 5494 5489 5483 5476 5469 5461 5453 5444 5435 5426 5416 5405 5394 5382 5370 5359 5349 5339 5330 5321 5312 5303 5294 5285 5275 5266 5256 5247 5237 5228 5220 5211 5202 5194 5185 5177 5169 5161 5154 5146
5507 5503 5499 5495 5490 5484 5478 5471 5463 5455 5447 5439 5430 5420 5410 5398 5387 5377 5368 5360 5352 5344 5337 5328 5320 5311 5301 5291 5281 5271 5261 5251 5241 5231 5222 5212 5203 5194 5185 5177 5169 5161 5153 5145
5505 5501 5496 5491 5486 5479 5473 5465 5458 5450 5442 5434 5424 5414 5403 5393 5385 5378 5372 5366 5359 5352 5344 5336 5328 5318 5308 5298 5288 5277 5267 5256 5245 5234 5223 5213 5203 5194 5185 5176 5167 5159 5152 5144
5503 5498 5493 5488 5481 5475 5468 5461 5454 5446 5438 5429 5419 5409 5400 5394 5389 5384 5378 5373 5366 5360 5352 5344 5335 5326 5316 5306 5295 5284 5273 5262 5250 5239 5227 5216 5205 5194 5184 5174 5165 5156 5149 5142